Regional Weather Roundup
Issued by NWS Albany, NY

Home | Current Version | Previous Version | Text Only | Print | Product List | Glossary On
Versions: 1 2 3 4 5 6 7 8 9 10 11 12 13 14 15 16 17 18 19 20 21 22 23 24 25 26 27
000
ASUS41 KALY 290310
RWRALY

NEW YORK STATE HOURLY WEATHER ROUNDUP
NATIONAL WEATHER SERVICE ALBANY NY
1100 PM EDT SUN MAY 28 2017

NOTE: "FAIR" INDICATES FEW OR NO CLOUDS BELOW 12,000 FEET WITH NO
SIGNIFICANT WEATHER AND/OR NO OBSTRUCTIONS TO VISIBILITY.

NYZ032-033-038>043-046>054-057>066-NYZ062>081-082-084-290400-
EAST


CITY           SKY/WX    TMP DP  RH WIND       PRES   REMARKS
ALBANY         CLOUDY    64  52  64 S12G23    29.91R
GLENS FALLS    NOT AVBL
POUGHKEEPSIE   MOCLDY    60  48  64 SE5       29.93S
NEWBURGH       MOCLDY    59  52  77 SE7       29.95S
MONTGOMERY     MOCLDY    60  49  66 CALM      29.92F
WHITE PLAINS   CLOUDY    58  50  75 E6        29.94S
ISLIP          CLOUDY    58  53  84 SE10      29.94F
NEW YORK CITY  CLOUDY    62  50  64 E14       29.93S
CENTRAL PARK   CLOUDY    62  50  64 SE5       29.95F
$$

NYZ005>009-017-018-044>046-055-056-290400-
CENTRAL


CITY           SKY/WX    TMP DP  RH WIND       PRES   REMARKS
FULTON         CLOUDY    71  55  56 VRB5      29.78S
SYRACUSE       MOCLDY    67  56  67 E6        29.79R
ROME           CLOUDY    67  56  67 E9        29.84S
ELMIRA         CLOUDY    67  58  72 SE10      29.80F
BINGHAMTON     CLOUDY    62  55  77 S9G16     29.86S
MONTICELLO     CLOUDY    57  52  82 SE8       29.94S
$$

NYZ026>034-041>043-087-290400-
NORTH


CITY           SKY/WX    TMP DP  RH WIND       PRES   REMARKS
WATERTOWN      MOCLDY    69  58  67 S6        29.78R
FORT DRUM      NOT AVBL
OGDENSBURG     MOCLDY    69  55  60 SE3       29.79S
MASSENA        CLOUDY    67  55  65 SE6       29.81F
SARANAC LAKE   PTCLDY    52  50  93 CALM      29.86F
PLATTSBURGH    PTCLDY    60  54  80 S3        29.86S
$$

NYZ001>004-010>016-019>021-085-290400-
WEST


CITY           SKY/WX    TMP DP  RH WIND       PRES   REMARKS
NIAGARA FALLS  CLOUDY    70  60  70 S13       29.71R
BUFFALO        CLOUDY    67  60  78 S8        29.73R
DUNKIRK        CLOUDY    65  60  84 S16G23    29.73R
JAMESTOWN      CLOUDY    61  57  88 S15       29.76F
WELLSVILLE     CLOUDY    61  56  83 S5        29.82R
ROCHESTER      CLOUDY    69  60  73 S9        29.74R
PENN YAN       CLOUDY    67  57  70 S9        29.78F
$$

             KEY
       WCI = WIND CHILL INDEX
       VSB = VISIBILITY
       HX  = HEAT INDEX
$$




USA.gov is the U.S. government's official web portal to all federal, state and local government web resources and services.